星链-34291 (STARLINK-34291)

导读 | 星芒AI

STARLINK-34291 是 SpaceX Starlink 卫星互联网项目中的一颗低轨道卫星,属于第6批部署的星链卫星之一。该卫星于2023年发射,旨在为全球用户提供高速互联网服务。它运行在约550公里高的近地轨道,采用先进的通信技术,支持宽带数据传输。Starlink 项目计划部署数千颗卫星,以构建覆盖全球的卫星网络,特别是在偏远和网络基础设施薄弱地区。STARLINK-34291 在提升全球互联网接入能力方面发挥着重要作用。

基本信息
目录编号:
64359
目录名称:
STARLINK-34291
国际标识:
2025-126R
轨道中心:
EARTH
卫星名称:
星链-34291
卫星全名:
星链-34291 (STARLINK-34291)
卫星状态:
在轨 (已飞行149 天)
发射日期:
2025-06-13 UTC
国别 :
美国 (US)
星等 :
--
轨道信息
数据来源 国际轨道数据 AOE轨道数据
星历时间 2025-11-08T18:59:58+0800
1天前
查看轨道信息
2025-11-05T09:00:00+0800
4天前
查看轨道信息
半长轴 6950.163km 6950.203km
偏心率 0.0003233 0.0003214
轨道倾角 70.001° 70.000°
近地点辐角 275.821° 276.065°
升交点赤经 340.077° 348.690°
平近点角 84.258° 19.808°
近地点 569.781km 569.834km
远地点 574.275km 574.302km
周期 96.106分钟 96.107分钟
每日圈数 14.983397 14.98327
详细信息
固有亮度:
5
最大亮度:
2.5
卫星平台:
Starlink V1.0
覆盖范围:
全球
运营商:
太空探索技术公司
运营商所在国:
美国
制造商(研发单位):
太空探索技术公司
制造商所在国:
美国
使用方式:
暂无
卫星简介
Starlink 计划是 SpaceX 推出的全球卫星互联网项目,通过发射低轨道卫星,为全球尤其是偏远地区提供高速、低延迟的互联网服务。自 2019 年起,Starlink 已部署数千颗卫星,旨在缩小全球数字鸿沟,推动互联网普及。该项目还为军事、航空等行业提供通信支持,带来广泛经济效益。
2D轨道图
3D轨道图
轨道高度分析图
轨道倾角分析图
轨道综合分析图
查看轨道综合分析图